Weather History for KMIE - October, 2012

Change the Weather History Date:

Friday, October 5, 2012

  Actual Average Record
Temperature  
Mean Temperature 53 °F 57 °F  
Max Temperature 66 °F 69 °F 87 °F (1967)
Min Temperature 40 °F 46 °F 30 °F (1999)
Degree Days  
Heating Degree Days 12 9  
Month to date heating degree days 32 40  
Since 1 July heating degree days 157 141  
Cooling Degree Days 0 1  
Month to date cooling degree days 1 5  
Year to date cooling degree days 1142 944  
Growing Degree Days 2 (Base 50)    
Moisture  
Dew Point 44 °F    
Average Humidity 78    
Maximum Humidity 93    
Minimum Humidity 63    
Precipitation  
Precipitation 1.18 in 0.11 in 1.44 in (2001)
Month to date precipitation 1.95 0.52  
Year to date precipitation 26.51 31.39  
Sea Level Pressure  
Sea Level Pressure 30.10 in    
Wind  
Wind Speed 7 mph (WNW)    
Max Wind Speed 15 mph    
Max Gust Speed 22 mph    
Visibility 7 miles    
Events Rain    
T = Trace of Precipitation, MM = Missing Value Source: NWS Daily Summary

Daily Weather History Graph

Daily Weather History Graph

Search for Another Location

Airport or City:

Trip Planner

Search our weather history database for the weather conditions in past years. The results will help you decide how hot, cold, wet, or windy it might be!

Date:

Astronomy

Oct. 05, 2012 Rise Set
Actual Time 7:42 AM EDT 7:16 PM EDT
Civil Twilight 7:15 AM EDT 7:43 PM EDT
Nautical Twilight 6:43 AM EDT 8:15 PM EDT
Astronomical Twilight 6:12 AM EDT 8:46 PM EDT
Moon 10:39 PM EDT 12:50 PM EDT
Length of Visible Light 12h 28m
Length of Day
11h 34m
Waning Gibbous, 74% of the Moon is Illuminated
Oct 5
Waning Gibbous
Oct 8
Last Quarter
Oct 15
New
Oct 21
First Quarter
Oct 29
Full

Hourly Weather History & Observations

Time (EDT) Temp. Windchill Dew Point Humidity Pressure Visibility Wind Dir Wind Speed Gust Speed Precip Events Conditions
12:53 AM 66.0 °F - 54.0 °F 65% 30.09 in 10.0 mi WSW 8.1 mph - N/A   Mostly Cloudy
1:53 AM 63.0 °F - 55.0 °F 75% 30.07 in 10.0 mi SW 4.6 mph - N/A   Clear
2:53 AM 61.0 °F - 55.0 °F 81% 30.09 in 10.0 mi West 5.8 mph - N/A   Partly Cloudy
4:53 AM 55.0 °F - 51.1 °F 86% 30.11 in 10.0 mi WNW 9.2 mph - N/A   Clear
5:16 AM 55.4 °F - 51.8 °F 88% 30.14 in 10.0 mi WNW 9.2 mph - N/A   Scattered Clouds
5:24 AM 53.6 °F - 51.8 °F 94% 30.14 in 10.0 mi WNW 9.2 mph - N/A   Mostly Cloudy
5:51 AM 53.6 °F - 46.4 °F 77% 30.14 in 10.0 mi NW 10.4 mph - N/A   Scattered Clouds
5:53 AM 53.1 °F - 46.9 °F 80% 30.13 in 10.0 mi NW 9.2 mph - N/A   Partly Cloudy
6:53 AM 52.0 °F - 46.0 °F 80% 30.13 in 10.0 mi NW 5.8 mph - N/A   Overcast
7:53 AM 52.0 °F - 46.9 °F 83% 30.13 in 4.0 mi NW 5.8 mph - 0.04 in Rain Light Rain
8:01 AM 51.8 °F - 46.4 °F 82% 30.15 in 2.5 mi WNW 8.1 mph - 0.01 in Rain Light Rain
8:08 AM 51.8 °F - 48.2 °F 88% 30.14 in 7.0 mi WNW 6.9 mph - 0.02 in Rain Light Rain
8:42 AM 51.8 °F - 48.2 °F 88% 30.14 in 10.0 mi NW 6.9 mph - 0.02 in   Overcast
8:53 AM 51.1 °F - 48.0 °F 89% 30.13 in 9.0 mi WNW 4.6 mph - 0.02 in   Overcast
9:17 AM 51.8 °F - 48.2 °F 88% 30.14 in 10.0 mi WNW 5.8 mph - 0.00 in Rain Light Rain
9:53 AM 50.0 °F - 46.9 °F 89% 30.12 in 9.0 mi West 4.6 mph - 0.00 in Rain Light Rain
10:02 AM 51.8 °F - 46.4 °F 82% 30.16 in 8.0 mi West 5.8 mph - 0.01 in Rain Light Rain
10:53 AM 50.0 °F - 46.0 °F 86% 30.14 in 9.0 mi West 6.9 mph - 0.01 in Rain Light Rain
11:02 AM 50.0 °F - 46.4 °F 87% 30.15 in 2.5 mi West 5.8 mph - 0.03 in Rain Rain
11:14 AM 48.2 °F - 46.4 °F 93% 30.15 in 2.0 mi West 4.6 mph - 0.07 in Rain Rain
11:26 AM 48.2 °F - 46.4 °F 93% 30.15 in 3.0 mi WNW 6.9 mph - 0.09 in Rain Rain
11:34 AM 48.2 °F - 46.4 °F 93% 30.15 in 2.5 mi NW 5.8 mph - 0.12 in Rain Rain
11:49 AM 48.2 °F - 44.6 °F 87% 30.15 in 3.0 mi WNW 8.1 mph - 0.17 in Rain Rain
11:53 AM 48.0 °F - 45.0 °F 89% 30.13 in 3.0 mi NW 9.2 mph - 0.18 in Rain Rain
12:00 PM 48.2 °F - 44.6 °F 87% 30.15 in 3.0 mi WNW 6.9 mph - 0.02 in Rain Rain
12:37 PM 46.4 °F - 44.6 °F 93% 30.13 in 3.0 mi Calm Calm - 0.10 in Rain Rain
1:12 PM 46.4 °F 42.9 °F 44.6 °F 93% 30.14 in 3.0 mi West 6.9 mph - 0.06 in Rain Rain
1:19 PM 46.4 °F 43.5 °F 44.6 °F 93% 30.13 in 2.0 mi WNW 5.8 mph - 0.10 in Rain Rain
1:36 PM 46.4 °F 44.3 °F 44.6 °F 93% 30.12 in 4.0 mi WNW 4.6 mph - 0.14 in Rain Light Rain
1:53 PM 46.9 °F - 45.0 °F 93% 30.09 in 3.0 mi NNW 5.8 mph - 0.17 in Rain Rain
2:53 PM 46.9 °F - 44.1 °F 90% 30.08 in 10.0 mi NW 5.8 mph - 0.03 in   Overcast
3:15 PM 46.4 °F 42.9 °F 42.8 °F 87% 30.10 in 10.0 mi WNW 6.9 mph - 0.00 in   Overcast
3:53 PM 46.9 °F - 43.0 °F 86% 30.07 in 10.0 mi WNW 6.9 mph - 0.00 in   Overcast
4:22 PM 46.4 °F 43.5 °F 44.6 °F 93% 30.08 in 2.0 mi WNW 5.8 mph - 0.02 in Rain Heavy Rain
4:34 PM 46.4 °F 44.3 °F 44.6 °F 93% 30.07 in 7.0 mi WNW 4.6 mph - 0.03 in Rain Light Rain
4:53 PM 46.9 °F - 43.0 °F 86% 30.06 in 10.0 mi WNW 6.9 mph - 0.03 in   Overcast
5:03 PM 46.4 °F 42.9 °F 42.8 °F 87% 30.06 in 10.0 mi NW 6.9 mph - N/A   Overcast
5:53 PM 46.0 °F 41.4 °F 43.0 °F 89% 30.05 in 10.0 mi NW 9.2 mph - 0.00 in   Overcast
6:14 PM 46.4 °F 41.5 °F 42.8 °F 87% 30.07 in 10.0 mi NW 10.4 mph 18.4 mph N/A   Overcast
6:30 PM 44.6 °F 39.7 °F 39.2 °F 81% 30.06 in 10.0 mi NW 9.2 mph - 0.00 in Rain Light Rain
6:53 PM 44.1 °F 37.7 °F 39.9 °F 85% 30.06 in 10.0 mi NNW 12.7 mph - 0.00 in   Overcast
7:15 PM 44.6 °F 38.1 °F 41.0 °F 87% 30.08 in 4.0 mi NNW 13.8 mph 19.6 mph 0.03 in Rain Rain
7:53 PM 43.0 °F 38.8 °F 39.0 °F 86% 30.07 in 10.0 mi WNW 6.9 mph - 0.04 in Rain Light Rain
8:08 PM 42.8 °F 37.0 °F 39.2 °F 87% 30.10 in 7.0 mi WNW 10.4 mph - 0.01 in Rain Light Rain
8:21 PM 42.8 °F 36.2 °F 37.4 °F 81% 30.10 in 4.0 mi NW 12.7 mph - 0.06 in Rain Rain
8:53 PM 41.0 °F 37.1 °F 37.9 °F 89% 30.08 in 5.0 mi NNW 5.8 mph - 0.19 in Rain Rain
9:00 PM 41.0 °F 37.1 °F 39.2 °F 93% 30.08 in 7.0 mi NNW 5.8 mph - 0.01 in Rain Light Rain
9:15 PM 41.0 °F 33.9 °F 37.4 °F 87% 30.10 in 9.0 mi NNW 12.7 mph - 0.02 in Rain Light Rain
9:43 PM 41.0 °F 35.2 °F 39.2 °F 93% 30.08 in 6.0 mi NW 9.2 mph - 0.08 in Rain Light Rain
9:45 PM 41.0 °F 35.2 °F 39.2 °F 93% 30.08 in 7.0 mi NW 9.2 mph - 0.08 in Rain Light Rain
9:53 PM 41.0 °F 33.9 °F 37.9 °F 89% 30.08 in 10.0 mi NW 12.7 mph - 0.08 in Rain Light Rain
10:07 PM 41.0 °F 34.7 °F 39.2 °F 93% 30.06 in 10.0 mi NNW 10.4 mph - 0.00 in   Overcast
10:36 PM 41.0 °F 34.3 °F 39.2 °F 93% 30.06 in 2.5 mi NW 11.5 mph 16.1 mph 0.08 in Rain Heavy Rain
10:50 PM 39.2 °F 34.2 °F 37.4 °F 93% 30.05 in 3.0 mi NW 6.9 mph 16.1 mph 0.14 in Rain Heavy Rain
10:53 PM 39.9 °F 33.9 °F 37.9 °F 93% 30.06 in 3.0 mi NW 9.2 mph - 0.16 in Rain Rain
11:01 PM 39.2 °F 33.0 °F 37.4 °F 93% 30.07 in 5.0 mi NW 9.2 mph - 0.01 in Rain Light Rain
11:53 PM 41.0 °F 36.4 °F 37.9 °F 89% 30.06 in 10.0 mi WNW 6.9 mph - 0.09 in   Overcast